Regional Weather Roundup
Issued by NWS

Home | Current Version | Previous Version | Text Only | Print | Product List | Glossary Off
Versions: 1 2 3 4 5 6 7 8 9 10 11 12 13 14 15 16 17 18 19 20 21 22 23 24 25 26 27 28 29 30 31 32 33 34 35 36 37 38 39 40 41 42 43 44 45 46 47 48 49 50

000
ASUS43 KMKX 222300
RWRWI

WISCONSIN REGIONAL WEATHER ROUNDUP
NATIONAL WEATHER SERVICE MILWAUKEE/SULLIVAN WI
600 PM CDT THU JUN 22 2017

NOTE: "FAIR" INDICATES FEW OR NO CLOUDS BELOW 12,000 FEET WITH NO
SIGNIFICANT WEATHER AND/OR OBSTRUCTIONS TO VISIBILITY.

WIZ001-002-006>008-014>016-023>028-230000-
NORTHWEST WISCONSIN

CITY           SKY/WX    TMP DP  RH WIND       PRES   REMARKS
SUPERIOR ARPT  NOT AVBL
ASHLAND        CLOUDY    75  55  49 SW10      29.68F
HAYWARD        MOSUNNY   72  57  59 VRB6      29.72F
SIREN          MOSUNNY   72  55  55 W5        29.73F
CUMBERLAND     CLOUDY    68  61  77 W7        29.74S
RICE LAKE      CLOUDY    67  63  87 SW7       29.76S
CHETEK         CLOUDY    65  64  99 NW5       29.74F
LADYSMITH      CLOUDY    65  63  92 W6        29.76S
EAU CLAIRE     CLOUDY    70  66  88 N5        29.72R
MENOMONIE      PTSUNNY   69  66  90 W5        29.73S
NEW RICHMOND   CLOUDY    66  64  93 W8        29.75S
OSCEOLA        CLOUDY    71  63  75 W9        29.77S
$$

WIZ003>005-009-010-017-018-230000-
NORTH CENTRAL WISCONSIN

CITY           SKY/WX    TMP DP  RH WIND       PRES   REMARKS
MANITOWISH WTR CLOUDY    66  62  86 W7        29.72F
ARBOR VITAE    CLOUDY    64  61  89 W9        29.72F
WOODRUFF       CLOUDY    64  61  89 W9        29.72F
RHINELANDER    LGT RAIN  64  64 100 W7        29.75R
EAGLE RIVER    PTSUNNY   64  62  93 W6        29.71F
LAND O LAKES   CLOUDY    67  60  78 SW5       29.73S
PHILLIPS       PTSUNNY   64  63  99 W5        29.74S
TOMAHAWK       NOT AVBL
MEDFORD        LGT RAIN  65  62  91 CALM      29.74S
MERRILL        LGT RAIN  67  66  99 CALM      29.73S
$$

WIZ029-030-035-036-043>047-230000-
CENTRAL WISCONSIN

CITY           SKY/WX    TMP DP  RH WIND       PRES   REMARKS
WAUSAU         LGT RAIN  66  65  96 S7        29.70F
MOSINEE        LGT RAIN  66  66 100 S6        29.75F FOG
MARSHFIELD     LGT RAIN  66  64  93 SW7       29.71F
STEVENS POINT  LGT RAIN  65  65 100 S9        29.73F
WAUPACA        RAIN      70  69  97 SW6       29.75S
WAUTOMA        LGT RAIN  68  67  96 N6        29.73F
WISC RAPIDS    LGT RAIN  68  66  93 SW7       29.73F
CAMP DOUGLAS   DRIZZLE   68  68 100 CALM      29.72F
$$

WIZ011>013-019>022-031-037>040-048>050-230000-
NORTHEAST WISCONSIN

CITY           SKY/WX    TMP DP  RH WIND       PRES   REMARKS
ANTIGO         CLOUDY    65  64  97 SW5       29.75R
SHAWANO        LGT RAIN  70  67  92 SW3       29.73R
OCONTO         CLOUDY    68  67  96 W3        29.71R
STURGEON BAY     N/A     69  68  96 S8          N/A
GREEN BAY      LGT RAIN  71  70  96 SW9       29.73R
MANITOWOC      NOT AVBL
APPLETON       LGT RAIN  68  68 100 W6        29.74R
CLINTONVILLE   LGT RAIN  68  66  94 S7        29.73S
OSHKOSH        LGT RAIN  70  67  90 NW7       29.72F
$$

WIZ032>034-041-042-053>061-230000-
SOUTHWEST WISCONSIN

CITY           SKY/WX    TMP DP  RH WIND       PRES   REMARKS
LA CROSSE      TSTM      70  68  93 S9        29.70F FOG
SPARTA         HVY RAIN  66  66 100 SE7       29.73F VSB 1
VIROQUA        CLOUDY    69  69 100 NE6       29.74F
BOSCOBEL       CLOUDY    77  70  79 NE7       29.70F
PRAIRIE DU CHI CLOUDY    78  71  76 NW6       29.69S HX  81
PLATTEVILLE    CLOUDY    81  73  76 SW7       29.71R HX  86
$$

WIZ056-057-062-063-064-067-068-230000-
SOUTH CENTRAL WISCONSIN

CITY           SKY/WX    TMP DP  RH WIND       PRES   REMARKS
REEDSBURG      CLOUDY    71  69  94 NE5       29.73R
BARABOO/DELLS  CLOUDY    71  65  81 N5        29.74R
LONE ROCK      NOT AVBL
MINERAL POINT  CLOUDY    81  73  78 CALM      29.72R HX  85
MADISON        CLOUDY    77  69  76 NE3       29.70F
MIDDLETON      CLOUDY    78  69  74 E5        29.71S
WATERTOWN      MOSUNNY   76  71  82 CALM      29.71F
MONROE         CLOUDY    81  68  65 S13       29.70F HX  83
JANESVILLE     PTSUNNY   84  70  61 SW8       29.68F HX  88
$$

WIZ051-052-058>065-066-070>072-230000-
SOUTHEAST WISCONSIN

CITY           SKY/WX    TMP DP  RH WIND       PRES   REMARKS
MILWAUKEE      PTSUNNY   75  66  73 NE6       29.72S
WAUKESHA       MOSUNNY   75  68  78 N5        29.73F
MILWAUKEE/TIMM MOSUNNY   79  66  65 NE5       29.73F HX  81
RACINE         CLOUDY    85  69  58 S3        29.72R HX  89
KENOSHA        CLOUDY    84  70  62 S7        29.70S HX  88
FOND DU LAC    CLOUDY    73  64  73 E3        29.70F
SHEBOYGAN      CLOUDY    74  67  78 NW6       29.73F
WEST BEND      CLOUDY    73  66  78 N6        29.73F
JUNEAU         CLOUDY    74  66  75 N5        29.74F
$$

LSZ147-162-230000-
LAKE SUPERIOR

STATION/POSITION TIME  TEMP    WIND        PRES    WAVE
                       AIR SEA DIR/SP/G            HT/PER
                 (UTC) (F)     (DEG/KT/KT) (MB)    (FT/S)
W MID LAKE BUOY  2150   46 39  230/  8/  8 1004.0F   1
DEVILS ISLAND    2200   67     220/ 13/ 16 1003.7F
SAXON HARBOR     2230   75     230/  4/ 11 1004.7F
$$

LMZ867-665-643>646-230000-
LAKE MICHIGAN

STATION/POSITION TIME  TEMP    WIND        PRES    WAVE
                       AIR SEA DIR/SP/G            HT/PER
                 (UTC) (F)     (DEG/KT/KT) (MB)    (FT/S)
CHAMBERS ISLAND  2240   67     200/  5/ 10 1005.4R
N MID LAKE BUOY  2150   58 55  180/ 10/ 12 1005.8F   2/ 5
NORTHPORT PIER   2240   68     170/  4/  7 1004.7F
KEWAUNEE LAKESHO 2230          230/  6/  8 1006.6R
SHEBOYGAN LAKESH 2200   72     240/  3/  6 1007.0R
PORT WASHINGTON  2230   70      60/  3/  4 1007.5F
ATWATER BUOY     2109   62 56   10/  2/  4 1006.9F
MILWAUKEE LAKESH 2230   69      20/  9/  9   N/A
S MID LAKE BUOY  2150   67 61  150/  8/ 10 1006.9F   2/ 4
KENOSHA   LAKESH 2200   75     170/ 15/ 16 1005.1
$$

TC  - TEMPERATURE IN CELSIUS
VSB - VISIBILITY IN STATUTE MILES
WCI - WIND CHILL INDEX
HX  - HEAT INDEX





USA.gov is the U.S. government's official web portal to all federal, state and local government web resources and services.